Location: Clarion
(42.7316°N, 93.7330°W)
Time: 22:16:17
(UTC+00:00)

NOSS 8 (A) - Pass Details

Date: 22 April 2026
Orbit: 358 x 1348 km, 63.3° (Epoch: 12 May)

Event Time Altitude Azimuth Distance (km) Brightness Sun altitude
Rises 02:02:49 0° 326° (NNW) 2,195 9.1 -10.8°
Reaches altitude 10° 02:04:44 10° 330° (NNW) 1,364 7.8 -11.1°
Maximum altitude 02:07:38 63° 53° (NE) 441 4.2 -11.5°
Enters shadow 02:09:45 19° 132° (SE) 1,055 5.7 -11.9°
